AirNav   Bose ProFlight Series 2 Headset
 
 1863 users online  

1C5 Bolingbrook's Clow International Airport
Bolingbrook, Illinois, USA

GOING TO BOLINGBROOK?


FAA INFORMATION EFFECTIVE 02 JANUARY 2020

Location

FAA Identifier: 1C5
Lat/Long: 41-41-45.3000N 088-07-46.2000W
41-41.755000N 088-07.770000W
41.6959167,-88.1295000
(estimated)
Elevation: 674.9 ft. / 206 m (estimated)
Variation: 04W (2020)
Time zone: UTC -6 (UTC -5 during Daylight Saving Time)
Zip code: 60490

Airport Operations

Airport use: Open to the public
Activation date: 03/1967
Control tower: no
ARTCC: CHICAGO CENTER
FSS: KANKAKEE FLIGHT SERVICE STATION
NOTAMs facility: IKK (NOTAM-D service available)
Attendance: 0700-1800
Pattern altitude: 1504.9 ft. MSL
Wind indicator: lighted
Segmented circle: no
Lights: MIRL RY 18/36 PRESET LOW INTST DUSK-DAWN TO INCR INTST - CTAF
Beacon: white-green (lighted land airport)
Operates sunset to sunrise.

Airport Communications

CTAF: 122.9
CHICAGO APPROACH: 119.35
CHICAGO DEPARTURE: 119.35
IC: 119.35
WX AWOS-3 at LOT (5 nm S): 118.525 (815-588-4802)
WX AWOS-3 at JOT (11 nm S): 119.975 (815-730-9560)
WX ASOS at DPA (14 nm NW): PHONE 630-584-2728
WX ASOS at ARR (16 nm W): PHONE 630-466-5622
WX AWOS-3 at 06C (18 nm N): 128.275 ((847) 895-2887)
WX ASOS at MDW (18 nm E): PHONE 773-884-4424
WX ASOS at ORD (19 nm NE): PHONE 773-462-0118

Nearby radio navigation aids

VOR radial/distance  VOR name  Freq  Var
JOTr041/12.3JOLIET VOR/DME112.3002E
DPAr138/15.3DUPAGE VOR/DME108.4002E
CGTr292/27.4CHICAGO HEIGHTS VORTAC114.2002E
EONr327/29.8PEOTONE VORTAC113.2002E
OBKr196/32.5NORTHBROOK VOR/DME113.0002W
IKKr341/39.4KANKAKEE VOR/DME111.6000E

Airport Services

Fuel available: 100LL JET-A
Parking: hangars and tiedowns
Airframe service: MAJOR
Powerplant service: MAJOR
Bottled oxygen: NONE
Bulk oxygen: NONE

Runway Information

Runway 18/36

Dimensions: 3360 x 75 ft. / 1024 x 23 m
Surface: asphalt, in good condition
Weight bearing capacity: 
Single wheel: 12.5
Runway edge lights: medium intensity
RUNWAY 18  RUNWAY 36
Latitude: 41-42.031245N41-41.478230N
Longitude: 088-07.779947W088-07.758665W
Elevation: 674.9 ft.657.0 ft.
Traffic pattern: leftleft
Runway heading: 182 magnetic, 178 true002 magnetic, 358 true
Markings: nonprecision, in good conditionnonprecision, in good condition
Touchdown point: yes, no lightsyes, no lights
Obstructions: 34 ft. tree, 694 ft. from runway, 90 ft. left of centerline, 14:1 slope to clearnone

Airport Ownership and Management from official FAA records

Ownership: Publicly-owned
Owner: VILLAGE OF BOLINGBROOK
375 W BRIARCLIFF ROAD
BOLINGBROOK, IL 60440
Phone 630-226-8400
Manager: JOSEPH DE PAULO
130 S CLOW INTL PARKWAY
BOLINGBROOK, IL 60490
Phone 630-378-0479
EMAIL ADDRESS: JOEDEPAULO@GMAIL.COM

Airport Operational Statistics

Aircraft based on the field: 68
Single engine airplanes: 57
Multi engine airplanes: 5
Helicopters: 1
Ultralights: 5
    
Aircraft operations: avg 137/day *
52% local general aviation
44% transient general aviation
4% air taxi
* for 12-month period ending 31 August 2017

Additional Remarks

TWY ONLY 20 FT WIDE. LARGE ARCT CONSIDER BACK-TAXI.
NO TGL, ALL FULL STOP LDGS.
FOR CD CTC CHICAGO APCH AT 847-289-0926.
FLT SCHOOL OPS ONLY: 123.50

Instrument Procedures

NOTE: All procedures below are presented as PDF files. If you need a reader for these files, you should download the free Adobe Reader.

NOT FOR NAVIGATION. Please procure official charts for flight.
FAA instrument procedures published for use from 02 January 2020 at 0901Z to 30 January 2020 at 0900Z.

 
IAPs - Instrument Approach Procedures
RNAV (GPS)-B   download (153KB)
VOR-A   download (159KB)
NOTE: Special Take-Off Minimums/Departure Procedures apply   download (369KB)

Other nearby airports with instrument procedures:

KLOT - Lewis University Airport (5 nm S)
KDPA - DuPage Airport (14 nm NW)
KARR - Aurora Municipal Airport (16 nm W)
KMDW - Chicago Midway International Airport (18 nm E)
KORD - Chicago O'Hare International Airport (19 nm NE)
 
Loc | Ops | Rwys | IFR | FBO | Links
Com | Nav | Svcs | Stats | Notes
Area around 1C5 (Bolingbrook's Clow International Airport)
 
Road maps at: MapQuest Bing Google
 
Aerial photo
WARNING: Photo may not be current or correct
Aerial photo of 1C5 (Bolingbrook's Clow International Airport)
Taken in 2016
looking southeast.

Do you have a better or more recent aerial photo of Bolingbrook's Clow International Airport that you would like to share? If so, please send us your photo.

 
Sectional chart

 
Airport distance calculator
Flying to Bolingbrook's Clow International Airport? Find the distance to fly.

From to 1C5

Sunrise and sunset
Times for 25-Jan-2020
 Local
(UTC-6)
 Zulu
(UTC)
Morning civil twilight06:4212:42
Sunrise07:1213:12
Sunset16:5822:58
Evening civil twilight17:2823:28

Current date and time
Zulu (UTC)  25-Jan-2020 20:20:26
Local (UTC-6)  25-Jan-2020 14:20:26
 
METAR
KLOT 
5nm S 
251955Z AUTO 27012KT 5SM BR OVC009 00/00 A2984 RMK AO2 T00011002
KJOT 
11nm S 
251955Z AUTO 26007KT 5SM BR OVC009 02/00 A2986 RMK AO2 T00150000
KDPA 
14nm N 
251952Z 26011KT 4SM BR OVC007 01/M01 A2981 RMK AO2 SNE13 CIG 006V010 SLP104 P0000 T00061006
KARR 
16nm W 
251952Z 26017KT 5SM BR OVC009 01/M02 A2983 RMK AO2 PK WND 26026/1858 RAE24 SLP108 P0000 T00061017
K06C 
18nm N 
251955Z AUTO 27008G15KT 250V310 4SM OVC007 01/01 A2981 RMK AO2 P0001 T00100005
KMDW 
18nm E 
251953Z 26010G20KT 3SM -SN BR SCT008 OVC014 01/00 A2983 RMK AO2 SNE08B44 SLP110 P0000 T00110000
KORD 
19nm NE 
251951Z 26009KT 4SM -SN BR BKN009 OVC014 01/00 A2981 RMK AO2 SLP099 P0000 T00110000
TAF
KDPA 
14nm N 
251735Z 2518/2618 26008KT 5SM -SN BR OVC009 TEMPO 2518/2520 2SM -SN BR OVC007 FM252100 27009KT 6SM -DZSN OVC007 FM260400 27009KT P6SM BKN007 OVC012
KMDW 
18nm E 
251735Z 2518/2624 26010KT 5SM -SN BR OVC009 TEMPO 2518/2520 2SM -SN BR OVC007 FM252130 27009KT 6SM -DZSN OVC007 FM260400 27009KT P6SM BKN007 OVC012
KORD 
19nm NE 
251735Z 2518/2624 26010KT 5SM -SN BR OVC009 TEMPO 2518/2520 2SM -SN BR OVC007 FM252100 27009KT 6SM -DZSN OVC007 FM260400 27009KT P6SM BKN007 OVC012
NOTAMs
Click for the latest NOTAMs
NOTAMs are issued by the DoD/FAA and will open in a separate window not controlled by AirNav.

 

 
 

FBO, Fuel Providers, and Aircraft Ground Support

  
 Business Name 
 
 Contact 
 
 Services / Description 
 
Fuel Prices
 
Comments
  
JW Aviation 630-759-1555
[web site]
[email]
Aviation fuel, Aircraft parking (ramp or tiedown), Hangars, Flight training, Aircraft rental, Aerial tours / aerial sightseeing, Pilot supplies, Flying club, ...

More info about JW Aviation
Phillips 66
100LL Jet A
SS $4.65 $3.93 
 Updated 07-Jan-2020
 
   1 read write
SS=Self service
Update Fuel Prices
 

Where to Eat: Catering, Restaurants, Food shops

  
 Business Name 
 
 Contact 
 
 Services / Description 
 
Distance
 
Comments
  
Charlie's at 1C5 630-771-0501
no information available

If you are affiliated with Charlie's at 1C5 and would like to show here your services, contact info, web link, logo, and more, click here
on airport  
   3 read write
 

Would you like to see your business listed on this page?

 If your business provides an interesting product or service to pilots, flight crews, aircraft, or users of the Bolingbrook's Clow International Airport, you should consider listing it here.  To start the listing process, click on the button below
 
Add a business
 

Other Pages about Bolingbrook's Clow International Airport

bbclowairport.com
 
Update a link
 
Copyright © AirNav, LLC. All rights reserved. Privacy Policy  Contact